Time,TemperatureF,DewpointF,PressureIn,WindDirection,WindDirectionDegrees,WindSpeedMPH,WindSpeedGustMPH,Humidity,HourlyPrecipIn,Conditions,Clouds,dailyrainin,SolarRadiationWatts/m^2,SoftwareType,DateUTC
2013-05-18 00:00:00,75.6,71.1,30.04,ESE,103,1.0,4.0,86,0.00,,-RA,0.01,0.00,VWS V14.00,2013-05-18 04:00:00,
2013-05-18 00:01:00,75.6,71.1,30.04,ESE,103,0.0,1.0,86,0.00,,-RA,0.01,0.00,VWS V14.00,2013-05-18 04:01:00,
2013-05-18 00:02:00,75.6,71.1,30.04,ESE,103,0.0,0.0,86,0.00,,-RA,0.00,0.00,VWS V14.00,2013-05-18 04:02:00,
2013-05-18 00:07:00,75.6,71.1,30.04,ESE,103,0.0,0.0,86,0.00,,-RA,0.00,0.00,VWS V14.00,2013-05-18 04:07:00,
2013-05-18 00:12:00,75.7,71.2,30.04,ESE,103,0.0,0.0,86,0.00,,-RA,0.00,0.00,VWS V14.00,2013-05-18 04:12:00,
2013-05-18 00:17:00,75.7,71.2,30.04,ESE,103,0.0,0.0,86,0.00,,-RA,0.00,0.00,VWS V14.00,2013-05-18 04:17:00,
2013-05-18 00:22:00,75.7,71.2,30.04,ESE,103,0.0,0.0,86,0.00,,-RA,0.00,0.00,VWS V14.00,2013-05-18 04:22:00,
2013-05-18 00:27:00,75.8,71.7,30.04,ESE,103,2.0,3.0,87,0.00,,-RA,0.00,0.00,VWS V14.00,2013-05-18 04:27:00,
2013-05-18 00:32:00,76.0,71.5,30.04,ESE,103,0.0,0.0,86,0.00,,-RA,0.00,0.00,VWS V14.00,2013-05-18 04:32:00,
2013-05-18 00:37:00,76.0,71.5,30.03,ESE,103,4.0,6.0,86,0.00,,-RA,0.00,0.00,VWS V14.00,2013-05-18 04:37:00,
2013-05-18 00:42:00,75.9,71.4,30.03,ESE,103,0.0,1.0,86,0.00,,-RA,0.00,0.00,VWS V14.00,2013-05-18 04:42:00,
2013-05-18 00:47:00,75.9,71.4,30.03,ESE,103,0.0,0.0,86,0.00,,-RA,0.00,0.00,VWS V14.00,2013-05-18 04:47:00,
2013-05-18 00:52:00,75.9,71.4,30.03,ESE,103,3.0,3.0,86,0.00,,-RA,0.00,0.00,VWS V14.00,2013-05-18 04:52:00,
2013-05-18 00:57:00,76.0,71.5,30.03,ESE,103,4.0,4.0,86,0.00,,-RA,0.00,0.00,VWS V14.00,2013-05-18 04:57:00,
2013-05-18 01:02:00,75.9,71.4,30.03,ESE,103,0.0,2.0,86,0.00,,-RA,0.00,0.00,VWS V14.00,2013-05-18 05:02:00,
2013-05-18 01:07:00,75.9,71.4,30.03,ESE,103,0.0,3.0,86,0.00,,-RA,0.00,0.00,VWS V14.00,2013-05-18 05:07:00,
2013-05-18 01:12:00,75.8,71.3,30.03,ESE,103,0.0,1.0,86,0.00,,-RA,0.00,0.00,VWS V14.00,2013-05-18 05:12:00,
2013-05-18 01:17:00,75.7,71.6,30.03,ESE,103,0.0,0.0,87,0.00,,-RA,0.00,0.00,VWS V14.00,2013-05-18 05:17:00,
2013-05-18 01:22:00,75.7,71.6,30.03,ESE,103,0.0,0.0,87,0.00,,-RA,0.00,0.00,VWS V14.00,2013-05-18 05:22:00,
2013-05-18 01:27:00,75.7,71.6,30.03,ESE,103,0.0,0.0,87,0.00,,-RA,0.00,0.00,VWS V14.00,2013-05-18 05:27:00,
2013-05-18 01:32:00,75.6,71.5,30.03,ESE,103,0.0,0.0,87,0.00,,-RA,0.00,0.00,VWS V14.00,2013-05-18 05:32:00,
2013-05-18 01:37:00,75.6,71.5,30.02,ESE,103,0.0,0.0,87,0.00,,-RA,0.00,0.00,VWS V14.00,2013-05-18 05:37:00,
2013-05-18 01:42:00,75.5,71.4,30.02,ESE,103,0.0,0.0,87,0.00,,-RA,0.00,0.00,VWS V14.00,2013-05-18 05:42:00,
2013-05-18 01:47:00,75.4,71.3,30.02,ESE,103,0.0,0.0,87,0.00,,-RA,0.00,0.00,VWS V14.00,2013-05-18 05:47:00,
2013-05-18 01:52:00,75.4,70.9,30.02,ESE,103,0.0,3.0,86,0.00,,-RA,0.00,0.00,VWS V14.00,2013-05-18 05:52:00,
2013-05-18 01:57:00,75.6,71.1,30.02,ESE,103,0.0,0.0,86,0.00,,-RA,0.00,0.00,VWS V14.00,2013-05-18 05:57:00,
2013-05-18 02:02:00,75.7,70.9,30.02,ESE,103,0.0,2.0,85,0.00,,-RA,0.00,0.00,VWS V14.00,2013-05-18 06:02:00,
2013-05-18 02:07:00,75.9,71.1,30.01,ESE,105,0.0,4.0,85,0.00,,-RA,0.00,0.00,VWS V14.00,2013-05-18 06:07:00,
2013-05-18 02:12:00,76.1,70.9,30.01,ESE,105,0.0,0.0,84,0.00,,-RA,0.00,0.00,VWS V14.00,2013-05-18 06:12:00,
2013-05-18 02:17:00,76.2,71.0,30.01,ESE,105,0.0,0.0,84,0.00,,-RA,0.00,0.00,VWS V14.00,2013-05-18 06:17:00,
2013-05-18 02:22:00,76.3,71.1,30.01,ESE,105,0.0,0.0,84,0.00,,-RA,0.00,0.00,VWS V14.00,2013-05-18 06:22:00,
2013-05-18 02:27:00,76.3,70.8,30.01,ESE,105,2.0,3.0,83,0.00,,-RA,0.00,0.00,VWS V14.00,2013-05-18 06:27:00,
2013-05-18 02:32:00,76.3,70.8,30.01,ESE,105,0.0,0.0,83,0.00,,-RA,0.00,0.00,VWS V14.00,2013-05-18 06:32:00,
2013-05-18 02:37:00,76.3,70.8,30.01,ESE,105,0.0,0.0,83,0.00,,-RA,0.00,0.00,VWS V14.00,2013-05-18 06:37:00,
2013-05-18 02:42:00,76.4,70.9,30.01,ESE,105,0.0,2.0,83,0.00,,-RA,0.00,0.00,VWS V14.00,2013-05-18 06:42:00,
2013-05-18 02:47:00,76.3,70.8,30.01,ESE,105,0.0,1.0,83,0.00,,-RA,0.00,0.00,VWS V14.00,2013-05-18 06:47:00,
2013-05-18 02:52:00,76.2,70.7,30.00,ESE,105,0.0,0.0,83,0.00,,-RA,0.00,0.00,VWS V14.00,2013-05-18 06:52:00,
2013-05-18 02:57:00,76.1,70.6,30.00,ESE,105,0.0,0.0,83,0.00,,-RA,0.00,0.00,VWS V14.00,2013-05-18 06:57:00,
2013-05-18 03:02:00,76.0,70.5,30.00,ESE,105,0.0,0.0,83,0.00,,-RA,0.00,0.00,VWS V14.00,2013-05-18 07:02:00,
2013-05-18 03:07:00,76.0,70.8,30.00,ESE,105,0.0,0.0,84,0.00,,-RA,0.00,0.00,VWS V14.00,2013-05-18 07:07:00,
2013-05-18 03:12:00,76.1,70.9,30.00,ESE,105,0.0,0.0,84,0.00,,-RA,0.00,0.00,VWS V14.00,2013-05-18 07:12:00,
2013-05-18 03:17:00,76.1,71.3,30.00,ESE,105,0.0,0.0,85,0.00,,-RA,0.00,0.00,VWS V14.00,2013-05-18 07:17:00,
2013-05-18 03:22:00,76.0,71.2,30.00,ESE,105,0.0,0.0,85,0.00,,-RA,0.00,0.00,VWS V14.00,2013-05-18 07:22:00,
2013-05-18 03:27:00,75.8,71.0,30.00,ESE,105,0.0,0.0,85,0.00,,-RA,0.00,0.00,VWS V14.00,2013-05-18 07:27:00,
2013-05-18 03:32:00,75.6,70.8,30.00,ESE,105,0.0,0.0,85,0.00,,-RA,0.00,0.00,VWS V14.00,2013-05-18 07:32:00,
2013-05-18 03:37:00,75.5,71.0,30.00,ESE,105,0.0,0.0,86,0.00,,-RA,0.00,0.00,VWS V14.00,2013-05-18 07:37:00,
2013-05-18 03:42:00,75.4,70.9,30.00,ESE,105,0.0,0.0,86,0.00,,-RA,0.00,0.00,VWS V14.00,2013-05-18 07:42:00,
2013-05-18 03:47:00,75.4,71.3,30.01,ESE,105,0.0,0.0,87,0.00,,-RA,0.00,0.00,VWS V14.00,2013-05-18 07:47:00,
2013-05-18 03:52:00,75.2,71.1,30.00,ESE,105,0.0,0.0,87,0.00,,-RA,0.00,0.00,VWS V14.00,2013-05-18 07:52:00,
2013-05-18 03:57:00,75.1,71.0,30.00,ESE,105,0.0,0.0,87,0.00,,-RA,0.00,0.00,VWS V14.00,2013-05-18 07:57:00,
2013-05-18 04:02:00,75.0,70.9,30.00,ESE,105,0.0,0.0,87,0.00,,-RA,0.00,0.00,VWS V14.00,2013-05-18 08:02:00,
2013-05-18 04:07:00,75.1,71.3,30.00,ESE,105,0.0,0.0,88,0.00,,-RA,0.00,0.00,VWS V14.00,2013-05-18 08:07:00,
2013-05-18 04:12:00,75.1,71.3,30.00,ESE,105,0.0,0.0,88,0.00,,-RA,0.00,0.00,VWS V14.00,2013-05-18 08:12:00,
2013-05-18 04:17:00,75.0,71.2,30.00,ESE,105,0.0,0.0,88,0.00,,-RA,0.00,0.00,VWS V14.00,2013-05-18 08:17:00,
2013-05-18 04:22:00,74.8,71.0,30.01,ESE,105,0.0,0.0,88,0.00,,-RA,0.00,0.00,VWS V14.00,2013-05-18 08:22:00,
2013-05-18 04:27:00,74.7,70.9,30.00,ESE,105,0.0,0.0,88,0.00,,-RA,0.00,0.00,VWS V14.00,2013-05-18 08:27:00,
2013-05-18 04:32:00,74.7,70.9,30.01,ESE,105,0.0,0.0,88,0.00,,-RA,0.00,0.00,VWS V14.00,2013-05-18 08:32:00,
2013-05-18 04:37:00,74.6,70.8,30.00,ESE,105,0.0,0.0,88,0.00,,-RA,0.00,0.00,VWS V14.00,2013-05-18 08:37:00,
2013-05-18 04:42:00,74.5,70.7,30.00,ESE,105,0.0,0.0,88,0.00,,-RA,0.00,0.00,VWS V14.00,2013-05-18 08:42:00,
2013-05-18 04:47:00,74.5,70.7,30.00,ESE,105,0.0,0.0,88,0.00,,-RA,0.00,0.00,VWS V14.00,2013-05-18 08:47:00,
2013-05-18 04:52:00,74.4,70.6,30.01,ESE,105,0.0,0.0,88,0.00,,-RA,0.00,0.00,VWS V14.00,2013-05-18 08:52:00,
2013-05-18 04:57:00,74.4,70.6,30.01,ESE,105,0.0,0.0,88,0.00,,-RA,0.00,0.00,VWS V14.00,2013-05-18 08:57:00,
2013-05-18 05:02:00,74.3,70.8,30.01,ESE,105,0.0,0.0,89,0.00,,-RA,0.00,0.00,VWS V14.00,2013-05-18 09:02:00,
2013-05-18 05:07:00,74.4,70.9,30.01,ESE,105,0.0,0.0,89,0.00,,-RA,0.00,0.00,VWS V14.00,2013-05-18 09:07:00,
2013-05-18 05:12:00,74.3,70.8,30.01,ESE,105,0.0,0.0,89,0.00,,-RA,0.00,0.00,VWS V14.00,2013-05-18 09:12:00,
2013-05-18 05:17:00,74.3,70.8,30.01,ESE,105,0.0,0.0,89,0.00,,-RA,0.00,0.00,VWS V14.00,2013-05-18 09:17:00,
2013-05-18 05:22:00,74.4,70.9,30.01,ESE,105,0.0,0.0,89,0.00,,-RA,0.00,0.00,VWS V14.00,2013-05-18 09:22:00,
2013-05-18 05:27:00,74.4,70.9,30.01,ESE,105,0.0,0.0,89,0.00,,-RA,0.00,0.00,VWS V14.00,2013-05-18 09:27:00,
2013-05-18 05:32:00,74.3,70.8,30.01,ESE,105,0.0,0.0,89,0.00,,-RA,0.00,0.00,VWS V14.00,2013-05-18 09:32:00,
2013-05-18 05:37:00,74.4,70.9,30.01,ESE,105,0.0,0.0,89,0.00,,-RA,0.00,0.00,VWS V14.00,2013-05-18 09:37:00,
2013-05-18 05:42:00,74.3,70.8,30.01,ESE,105,0.0,0.0,89,0.00,,-RA,0.00,0.00,VWS V14.00,2013-05-18 09:42:00,
2013-05-18 05:47:00,74.3,70.8,30.01,ESE,105,0.0,0.0,89,0.00,,-RA,0.00,0.00,VWS V14.00,2013-05-18 09:47:00,
2013-05-18 05:52:00,74.2,70.8,30.01,ESE,105,0.0,0.0,89,0.00,,-RA,0.00,0.00,VWS V14.00,2013-05-18 09:52:00,
2013-05-18 05:57:00,74.2,70.8,30.01,ESE,105,0.0,0.0,89,0.00,,-RA,0.00,0.00,VWS V14.00,2013-05-18 09:57:00,
2013-05-18 06:02:00,74.1,70.7,30.01,ESE,105,0.0,0.0,89,0.00,,-RA,0.00,0.00,VWS V14.00,2013-05-18 10:02:00,
2013-05-18 06:07:00,74.0,70.6,30.01,ESE,105,0.0,0.0,89,0.00,,-RA,0.00,0.00,VWS V14.00,2013-05-18 10:07:00,
2013-05-18 06:13:00,73.9,70.5,30.01,ESE,105,0.0,0.0,89,0.00,,-RA,0.00,0.00,VWS V14.00,2013-05-18 10:13:00,
2013-05-18 06:18:00,73.9,70.5,30.02,ESE,105,0.0,0.0,89,0.00,,-RA,0.00,0.00,VWS V14.00,2013-05-18 10:18:00,
2013-05-18 06:23:00,73.9,70.5,30.02,ESE,105,0.0,0.0,89,0.00,,-RA,0.00,0.00,VWS V14.00,2013-05-18 10:23:00,
2013-05-18 06:27:00,73.8,70.4,30.02,ESE,123,0.0,0.0,89,0.00,,-RA,0.00,0.00,VWS V14.00,2013-05-18 10:27:00,
2013-05-18 06:32:00,73.7,70.3,30.02,ESE,123,0.0,0.0,89,0.00,,-RA,0.00,0.00,VWS V14.00,2013-05-18 10:32:00,
2013-05-18 06:37:00,73.7,70.3,30.02,ESE,123,0.0,0.0,89,0.00,,-RA,0.00,0.00,VWS V14.00,2013-05-18 10:37:00,
2013-05-18 06:42:00,73.6,70.2,30.02,ESE,123,0.0,0.0,89,0.00,,-RA,0.00,0.00,VWS V14.00,2013-05-18 10:42:00,
2013-05-18 06:47:00,73.6,70.2,30.02,ESE,123,0.0,0.0,89,0.00,,-RA,0.00,0.00,VWS V14.00,2013-05-18 10:47:00,
2013-05-18 06:52:00,73.5,70.1,30.02,ESE,123,0.0,0.0,89,0.00,,-RA,0.00,5.00,VWS V14.00,2013-05-18 10:52:00,
2013-05-18 06:57:00,73.6,70.2,30.03,ESE,123,0.0,0.0,89,0.00,,-RA,0.00,7.00,VWS V14.00,2013-05-18 10:57:00,
2013-05-18 07:02:00,73.6,70.5,30.03,ESE,123,0.0,0.0,90,0.00,,-RA,0.00,9.00,VWS V14.00,2013-05-18 11:02:00,
2013-05-18 07:07:00,73.5,70.4,30.03,ESE,123,0.0,0.0,90,0.00,,-RA,0.00,16.00,VWS V14.00,2013-05-18 11:07:00,
2013-05-18 07:12:00,73.5,70.4,30.04,ESE,123,0.0,0.0,90,0.00,,-RA,0.00,179.00,VWS V14.00,2013-05-18 11:12:00,
2013-05-18 07:17:00,73.7,70.6,30.04,ESE,123,0.0,0.0,90,0.00,,-RA,0.00,176.00,VWS V14.00,2013-05-18 11:17:00,
2013-05-18 07:22:00,74.0,70.9,30.04,ESE,123,0.0,2.0,90,0.00,,-RA,0.00,171.00,VWS V14.00,2013-05-18 11:22:00,
2013-05-18 07:27:00,74.4,71.3,30.04,ESE,123,0.0,1.0,90,0.00,,-RA,0.00,179.00,VWS V14.00,2013-05-18 11:27:00,
2013-05-18 07:32:00,74.8,71.7,30.04,ESE,123,0.0,0.0,90,0.00,,-RA,0.00,185.00,VWS V14.00,2013-05-18 11:32:00,
2013-05-18 07:37:00,75.3,71.8,30.04,ESE,123,0.0,0.0,89,0.00,,-RA,0.00,188.00,VWS V14.00,2013-05-18 11:37:00,
2013-05-18 07:42:00,75.6,72.1,30.04,ESE,123,0.0,0.0,89,0.00,,-RA,0.00,193.00,VWS V14.00,2013-05-18 11:42:00,
2013-05-18 07:47:00,76.0,72.5,30.04,ESE,123,0.0,0.0,89,0.00,,-RA,0.00,195.00,VWS V14.00,2013-05-18 11:47:00,
2013-05-18 07:53:00,76.5,73.0,30.04,ESE,123,0.0,1.0,89,0.00,,-RA,0.00,202.00,VWS V14.00,2013-05-18 11:53:00,
2013-05-18 07:58:00,76.9,73.1,30.04,ESE,123,0.0,0.0,88,0.00,,-RA,0.00,246.00,VWS V14.00,2013-05-18 11:58:00,
2013-05-18 08:03:00,77.5,73.3,30.04,ESE,123,0.0,1.0,87,0.00,,-RA,0.00,199.00,VWS V14.00,2013-05-18 12:03:00,
2013-05-18 08:08:00,78.1,73.9,30.04,ESE,123,0.0,2.0,87,0.00,,-RA,0.00,192.00,VWS V14.00,2013-05-18 12:08:00,
2013-05-18 08:13:00,78.7,74.2,30.04,ESE,123,1.0,1.0,86,0.00,,-RA,0.00,190.00,VWS V14.00,2013-05-18 12:13:00,
2013-05-18 08:18:00,79.1,74.2,30.05,ESE,123,1.0,1.0,85,0.00,,-RA,0.00,188.00,VWS V14.00,2013-05-18 12:18:00,
2013-05-18 08:23:00,79.5,74.2,30.05,ESE,123,1.0,3.0,84,0.00,,-RA,0.00,185.00,VWS V14.00,2013-05-18 12:23:00,
2013-05-18 08:28:00,79.8,74.2,30.05,ESE,123,0.0,0.0,83,0.00,,-RA,0.00,179.00,VWS V14.00,2013-05-18 12:28:00,
2013-05-18 08:33:00,80.1,74.5,30.05,SE,130,0.0,3.0,83,0.00,,-RA,0.00,63.00,VWS V14.00,2013-05-18 12:33:00,
2013-05-18 08:38:00,80.1,74.1,30.05,SE,131,3.0,4.0,82,0.00,,-RA,0.00,58.00,VWS V14.00,2013-05-18 12:38:00,
2013-05-18 08:43:00,79.9,73.6,30.05,SSE,158,0.0,5.0,81,0.00,,-RA,0.00,171.00,VWS V14.00,2013-05-18 12:43:00,
2013-05-18 08:48:00,79.9,73.6,30.05,SSE,161,0.0,1.0,81,0.00,,-RA,0.00,171.00,VWS V14.00,2013-05-18 12:48:00,
2013-05-18 08:53:00,80.3,73.9,30.05,SSE,161,2.0,6.0,81,0.00,,-RA,0.00,179.00,VWS V14.00,2013-05-18 12:53:00,
2013-05-18 08:58:00,80.6,73.9,30.05,SSE,163,0.0,4.0,80,0.00,,CLR,0.00,195.00,VWS V14.00,2013-05-18 12:58:00,
2013-05-18 09:03:00,81.1,74.3,30.05,SSE,163,0.0,0.0,80,0.00,,CLR,0.00,206.00,VWS V14.00,2013-05-18 13:03:00,
2013-05-18 09:08:00,81.4,74.3,30.05,SSE,163,0.0,0.0,79,0.00,,CLR,0.00,67.00,VWS V14.00,2013-05-18 13:08:00,
2013-05-18 09:13:00,81.6,74.5,30.05,SSE,163,0.0,0.0,79,0.00,,CLR,0.00,127.00,VWS V14.00,2013-05-18 13:13:00,
2013-05-18 09:18:00,81.9,74.0,30.05,SSE,163,0.0,0.0,77,0.00,,CLR,0.00,211.00,VWS V14.00,2013-05-18 13:18:00,
2013-05-18 09:23:00,82.2,74.3,30.05,SSE,163,0.0,3.0,77,0.00,,CLR,0.00,211.00,VWS V14.00,2013-05-18 13:23:00,
2013-05-18 09:28:00,82.5,73.8,30.05,SSE,163,2.0,4.0,75,0.00,,CLR,0.00,207.00,VWS V14.00,2013-05-18 13:28:00,
2013-05-18 09:33:00,82.7,74.4,30.05,SSE,163,3.0,3.0,76,0.00,,CLR,0.00,211.00,VWS V14.00,2013-05-18 13:33:00,
2013-05-18 09:38:00,82.9,74.2,30.05,SSE,163,2.0,4.0,75,0.00,,SCT016,0.00,220.00,VWS V14.00,2013-05-18 13:38:00,
2013-05-18 09:43:00,82.9,74.2,30.05,SSE,161,3.0,4.0,75,0.00,,SCT016,0.00,221.00,VWS V14.00,2013-05-18 13:43:00,
2013-05-18 09:48:00,82.9,73.4,30.05,SSE,163,5.0,5.0,73,0.00,,SCT016,0.00,236.00,VWS V14.00,2013-05-18 13:48:00,
2013-05-18 09:53:00,82.8,73.3,30.05,SSE,163,2.0,3.0,73,0.00,,SCT016,0.00,244.00,VWS V14.00,2013-05-18 13:53:00,
2013-05-18 09:58:00,83.0,73.9,30.05,SSE,163,0.0,0.0,74,0.00,,SCT016,0.00,257.00,VWS V14.00,2013-05-18 13:58:00,
2013-05-18 10:03:00,83.4,73.0,30.05,SSE,163,3.0,6.0,71,0.00,,SCT016,0.00,111.00,VWS V14.00,2013-05-18 14:03:00,
2013-05-18 10:08:00,83.2,72.8,30.05,SSE,163,0.0,1.0,71,0.00,,SCT016,0.00,97.00,VWS V14.00,2013-05-18 14:08:00,
2013-05-18 10:13:00,83.2,73.7,30.05,SSE,163,1.0,2.0,73,0.00,,SCT016,0.00,93.00,VWS V14.00,2013-05-18 14:13:00,
2013-05-18 10:19:00,83.1,74.0,30.05,SSE,163,1.0,3.0,74,0.00,,SCT016,0.00,241.00,VWS V14.00,2013-05-18 14:19:00,
2013-05-18 10:24:00,83.4,73.8,30.05,SSE,161,0.0,6.0,73,0.00,,SCT016,0.00,107.00,VWS V14.00,2013-05-18 14:24:00,
2013-05-18 10:29:00,83.0,73.9,30.05,SSE,159,7.0,11.0,74,0.00,,SCT016,0.00,128.00,VWS V14.00,2013-05-18 14:29:00,
2013-05-18 10:34:00,82.6,73.5,30.05,SSE,157,9.0,10.0,74,0.00,,SCT016,0.00,88.00,VWS V14.00,2013-05-18 14:34:00,
2013-05-18 10:39:00,82.1,73.0,30.05,South,182,7.0,13.0,74,0.00,,SCT028,0.00,195.00,VWS V14.00,2013-05-18 14:39:00,
2013-05-18 10:43:00,82.3,73.2,30.05,SSE,159,2.0,9.0,74,0.00,,SCT028,0.00,151.00,VWS V14.00,2013-05-18 14:43:00,
2013-05-18 10:48:00,82.3,72.4,30.05,SSE,167,3.0,10.0,72,0.00,,SCT028,0.00,104.00,VWS V14.00,2013-05-18 14:48:00,
2013-05-18 10:54:00,82.0,72.1,30.05,SSW,211,5.0,10.0,72,0.00,,SCT028,0.00,86.00,VWS V14.00,2013-05-18 14:54:00,
2013-05-18 10:59:00,81.6,71.7,30.05,SSW,196,2.0,7.0,72,0.00,,SCT028,0.00,84.00,VWS V14.00,2013-05-18 14:59:00,
2013-05-18 11:04:00,81.4,71.5,30.06,South,171,6.0,6.0,72,0.00,,SCT028,0.00,76.00,VWS V14.00,2013-05-18 15:04:00,
2013-05-18 11:09:00,81.2,71.7,30.06,SSE,165,5.0,10.0,73,0.00,,SCT028,0.00,79.00,VWS V14.00,2013-05-18 15:09:00,
2013-05-18 11:14:00,81.0,71.5,30.06,SSE,160,0.0,3.0,73,0.00,,SCT028,0.00,93.00,VWS V14.00,2013-05-18 15:14:00,
2013-05-18 11:19:00,81.0,71.1,30.06,South,170,7.0,7.0,72,0.00,,SCT028,0.00,102.00,VWS V14.00,2013-05-18 15:19:00,
2013-05-18 11:24:00,81.3,69.7,30.06,SSE,165,6.0,8.0,68,0.00,,SCT028,0.00,111.00,VWS V14.00,2013-05-18 15:24:00,
2013-05-18 11:29:00,81.8,71.1,30.06,South,178,0.0,1.0,70,0.00,,SCT028,0.00,183.00,VWS V14.00,2013-05-18 15:29:00,
2013-05-18 11:34:00,82.6,72.2,30.05,South,180,1.0,3.0,71,0.00,,SCT028,0.00,98.00,VWS V14.00,2013-05-18 15:34:00,
2013-05-18 11:39:00,82.7,73.2,30.05,SSE,164,4.0,11.0,73,0.00,,SCT028,0.00,105.00,VWS V14.00,2013-05-18 15:39:00,
2013-05-18 11:44:00,82.5,73.4,30.05,South,182,14.0,14.0,74,0.00,,SCT028,0.00,114.00,VWS V14.00,2013-05-18 15:44:00,
2013-05-18 11:49:00,82.2,73.1,30.05,South,186,6.0,6.0,74,0.00,,SCT028,0.00,102.00,VWS V14.00,2013-05-18 15:49:00,
2013-05-18 11:54:00,82.2,73.5,30.05,South,176,4.0,7.0,75,0.00,,SCT028,0.00,116.00,VWS V14.00,2013-05-18 15:54:00,
2013-05-18 11:59:00,82.2,73.5,30.05,South,179,6.0,11.0,75,0.00,,SCT028,0.00,230.00,VWS V14.00,2013-05-18 15:59:00,
2013-05-18 12:04:00,82.5,73.8,30.05,SSE,165,6.0,8.0,75,0.00,,SCT028,0.00,246.00,VWS V14.00,2013-05-18 16:04:00,
2013-05-18 12:09:00,82.9,73.8,30.05,South,186,4.0,7.0,74,0.00,,SCT028,0.00,237.00,VWS V14.00,2013-05-18 16:09:00,
2013-05-18 12:14:00,83.0,73.1,30.05,SSE,152,6.0,11.0,72,0.00,,SCT028,0.00,109.00,VWS V14.00,2013-05-18 16:14:00,
2013-05-18 12:19:00,82.9,72.9,30.04,SE,146,7.0,10.0,72,0.00,,SCT028,0.00,250.00,VWS V14.00,2013-05-18 16:19:00,
2013-05-18 12:24:00,83.2,73.2,30.04,SSE,161,7.0,16.0,72,0.00,,SCT028,0.00,241.00,VWS V14.00,2013-05-18 16:24:00,
2013-05-18 12:29:00,83.3,73.8,30.04,South,180,12.0,13.0,73,0.00,,SCT028,0.00,244.00,VWS V14.00,2013-05-18 16:29:00,
2013-05-18 12:34:00,83.9,73.5,30.04,South,182,8.0,11.0,71,0.00,,SCT028,0.00,135.00,VWS V14.00,2013-05-18 16:34:00,
2013-05-18 12:39:00,84.0,73.6,30.04,SSE,153,10.0,12.0,71,0.00,,SCT028,0.00,156.00,VWS V14.00,2013-05-18 16:39:00,
2013-05-18 12:44:00,83.8,73.0,30.04,South,180,4.0,7.0,70,0.00,,SCT028,0.00,169.00,VWS V14.00,2013-05-18 16:44:00,
2013-05-18 12:49:00,83.9,73.1,30.04,SSE,165,12.0,17.0,70,0.00,,SCT028,0.00,185.00,VWS V14.00,2013-05-18 16:49:00,
2013-05-18 12:54:00,83.4,73.0,30.03,SSW,192,10.0,14.0,71,0.00,,SCT028,0.00,214.00,VWS V14.00,2013-05-18 16:54:00,
2013-05-18 12:59:00,83.3,72.9,30.03,SSE,158,10.0,12.0,71,0.00,,SCT028,0.00,209.00,VWS V14.00,2013-05-18 16:59:00,
2013-05-18 13:04:00,83.3,72.5,30.04,SSE,159,5.0,12.0,70,0.00,,SCT028,0.00,88.00,VWS V14.00,2013-05-18 17:04:00,
2013-05-18 13:09:00,82.9,72.1,30.03,South,173,6.0,12.0,70,0.00,,SCT028,0.00,91.00,VWS V14.00,2013-05-18 17:09:00,
2013-05-18 13:14:00,82.5,72.6,30.03,South,179,6.0,7.0,72,0.00,,SCT028,0.00,104.00,VWS V14.00,2013-05-18 17:14:00,
2013-05-18 13:19:00,82.3,72.4,30.03,SSW,200,8.0,8.0,72,0.00,,SCT028,0.00,97.00,VWS V14.00,2013-05-18 17:19:00,
2013-05-18 13:24:00,82.5,73.0,30.03,SSE,162,7.0,10.0,73,0.00,,SCT028,0.00,100.00,VWS V14.00,2013-05-18 17:24:00,
2013-05-18 13:29:00,82.5,72.6,30.03,SSW,204,5.0,12.0,72,0.00,,SCT028,0.00,214.00,VWS V14.00,2013-05-18 17:29:00,
2013-05-18 13:34:00,82.8,72.4,30.03,South,178,11.0,14.0,71,0.00,,SCT028,0.00,121.00,VWS V14.00,2013-05-18 17:34:00,
2013-05-18 13:39:00,82.9,72.9,30.03,SSE,157,9.0,15.0,72,0.00,,SCT028,0.00,179.00,VWS V14.00,2013-05-18 17:39:00,
2013-05-18 13:44:00,82.8,72.4,30.03,South,178,4.0,13.0,71,0.00,,SCT028,0.00,135.00,VWS V14.00,2013-05-18 17:44:00,
2013-05-18 13:49:00,82.9,72.5,30.02,SSE,162,11.0,14.0,71,0.00,,SCT028,0.00,253.00,VWS V14.00,2013-05-18 17:49:00,
2013-05-18 13:54:00,83.4,73.0,30.02,SSE,160,11.0,16.0,71,0.00,,SCT028,0.00,223.00,VWS V14.00,2013-05-18 17:54:00,
2013-05-18 13:59:00,83.5,73.1,30.02,South,186,5.0,13.0,71,0.00,,SCT028,0.00,176.00,VWS V14.00,2013-05-18 17:59:00,
2013-05-18 14:04:00,83.6,72.8,30.02,SSE,168,5.0,14.0,70,0.00,,SCT028,0.00,220.00,VWS V14.00,2013-05-18 18:04:00,
2013-05-18 14:09:00,83.6,73.2,30.02,South,184,7.0,16.0,71,0.00,,SCT028,0.00,213.00,VWS V14.00,2013-05-18 18:09:00,
2013-05-18 14:14:00,84.0,73.6,30.02,South,176,6.0,10.0,71,0.00,,SCT028,0.00,153.00,VWS V14.00,2013-05-18 18:14:00,
2013-05-18 14:19:00,84.4,73.1,30.02,SSW,195,6.0,13.0,69,0.00,,SCT028,0.00,202.00,VWS V14.00,2013-05-18 18:19:00,
2013-05-18 14:24:00,84.0,72.7,30.02,SSE,162,5.0,11.0,69,0.00,,SCT028,0.00,93.00,VWS V14.00,2013-05-18 18:24:00,
2013-05-18 14:29:00,83.8,73.0,30.02,SSE,164,9.0,13.0,70,0.00,,SCT028,0.00,214.00,VWS V14.00,2013-05-18 18:29:00,
2013-05-18 14:34:00,83.7,72.9,30.02,SSE,153,12.0,16.0,70,0.00,,SCT028,0.00,88.00,VWS V14.00,2013-05-18 18:34:00,
2013-05-18 14:39:00,83.6,72.8,30.02,South,169,7.0,15.0,70,0.00,,SCT035,0.00,216.00,VWS V14.00,2013-05-18 18:39:00,
2013-05-18 14:44:00,83.8,73.0,30.01,SSE,151,15.0,16.0,70,0.00,,SCT035,0.00,236.00,VWS V14.00,2013-05-18 18:44:00,
2013-05-18 14:49:00,83.3,72.5,30.01,SE,138,7.0,15.0,70,0.00,,SCT035,0.00,88.00,VWS V14.00,2013-05-18 18:49:00,
2013-05-18 14:54:00,83.1,72.7,30.00,SSW,192,5.0,13.0,71,0.00,,SCT035,0.00,113.00,VWS V14.00,2013-05-18 18:54:00,
2013-05-18 14:59:00,83.0,72.2,30.01,SSE,167,3.0,14.0,70,0.00,,SCT035,0.00,120.00,VWS V14.00,2013-05-18 18:59:00,
2013-05-18 15:04:00,83.4,73.0,30.01,South,170,4.0,10.0,71,0.00,,SCT035,0.00,213.00,VWS V14.00,2013-05-18 19:04:00,
2013-05-18 15:09:00,83.4,72.6,30.01,South,187,7.0,7.0,70,0.00,,SCT035,0.00,98.00,VWS V14.00,2013-05-18 19:09:00,
2013-05-18 15:14:00,83.0,72.6,30.01,SSW,205,6.0,10.0,71,0.00,,SCT035,0.00,95.00,VWS V14.00,2013-05-18 19:14:00,
2013-05-18 15:19:00,82.9,72.5,30.00,South,184,5.0,9.0,71,0.00,,SCT035,0.00,125.00,VWS V14.00,2013-05-18 19:19:00,
2013-05-18 15:24:00,83.0,73.1,30.00,SSE,159,12.0,16.0,72,0.00,,SCT035,0.00,220.00,VWS V14.00,2013-05-18 19:24:00,
2013-05-18 15:29:00,83.2,72.8,30.00,SSE,161,6.0,11.0,71,0.00,,SCT035,0.00,79.00,VWS V14.00,2013-05-18 19:29:00,
2013-05-18 15:34:00,82.9,72.5,30.00,SSE,166,7.0,13.0,71,0.00,,SCT035,0.00,98.00,VWS V14.00,2013-05-18 19:34:00,
2013-05-18 15:39:00,82.8,72.9,30.00,SSE,163,2.0,10.0,72,0.00,,SCT024CU,0.00,113.00,VWS V14.00,2013-05-18 19:39:00,
2013-05-18 15:44:00,82.9,72.9,30.01,SSE,161,10.0,11.0,72,0.00,,SCT024CU,0.00,113.00,VWS V14.00,2013-05-18 19:44:00,
2013-05-18 15:49:00,82.8,72.9,30.00,SE,144,10.0,12.0,72,0.00,,SCT024CU,0.00,193.00,VWS V14.00,2013-05-18 19:49:00,
2013-05-18 15:54:00,82.8,72.4,30.00,South,176,5.0,16.0,71,0.00,,SCT024CU,0.00,98.00,VWS V14.00,2013-05-18 19:54:00,
2013-05-18 15:59:00,82.4,72.1,30.00,South,175,6.0,15.0,71,0.00,,SCT024CU,0.00,93.00,VWS V14.00,2013-05-18 19:59:00,
2013-05-18 16:04:00,82.0,71.7,30.00,South,178,2.0,9.0,71,0.00,,SCT024CU,0.00,214.00,VWS V14.00,2013-05-18 20:04:00,
2013-05-18 16:09:00,82.5,72.2,30.00,SSW,196,6.0,13.0,71,0.00,,SCT024CU,0.00,199.00,VWS V14.00,2013-05-18 20:09:00,
2013-05-18 16:14:00,82.9,72.1,30.00,SSW,195,5.0,9.0,70,0.00,,SCT024CU,0.00,153.00,VWS V14.00,2013-05-18 20:14:00,
2013-05-18 16:19:00,83.2,72.4,29.99,South,169,3.0,6.0,70,0.00,,SCT024CU,0.00,197.00,VWS V14.00,2013-05-18 20:19:00,
2013-05-18 16:24:00,83.6,72.4,29.99,SSE,163,8.0,9.0,69,0.00,,SCT024CU,0.00,178.00,VWS V14.00,2013-05-18 20:24:00,
2013-05-18 16:29:00,83.7,72.0,29.98,SSW,193,4.0,13.0,68,0.00,,SCT024CU,0.00,174.00,VWS V14.00,2013-05-18 20:29:00,
2013-05-18 16:34:00,83.2,72.0,29.98,South,177,11.0,15.0,69,0.00,,SCT024CU,0.00,84.00,VWS V14.00,2013-05-18 20:34:00,
2013-05-18 16:39:00,82.8,72.4,29.98,South,187,10.0,12.0,71,0.00,,BKN12015CU,0.00,169.00,VWS V14.00,2013-05-18 20:39:00,
2013-05-18 16:44:00,82.7,71.9,29.98,SSE,147,6.0,12.0,70,0.00,,BKN12015CU,0.00,172.00,VWS V14.00,2013-05-18 20:44:00,
2013-05-18 16:50:00,82.7,72.3,29.99,South,171,7.0,11.0,71,0.00,,BKN12015CU,0.00,134.00,VWS V14.00,2013-05-18 20:50:00,
2013-05-18 16:55:00,82.9,72.1,29.99,SSE,168,9.0,12.0,70,0.00,,BKN12015CU,0.00,134.00,VWS V14.00,2013-05-18 20:55:00,
2013-05-18 17:00:00,82.5,72.2,29.99,SE,129,10.0,14.0,71,0.00,,BKN12015CU,0.00,30.00,VWS V14.00,2013-05-18 21:00:00,
2013-05-18 17:05:00,81.9,72.0,29.99,South,179,9.0,13.0,72,0.00,,BKN12015CU,0.00,28.00,VWS V14.00,2013-05-18 21:05:00,
2013-05-18 17:10:00,81.3,71.8,29.99,SSE,158,9.0,12.0,73,0.00,,BKN12015CU,0.00,30.00,VWS V14.00,2013-05-18 21:10:00,
2013-05-18 17:15:00,81.2,72.1,29.99,SSE,157,9.0,15.0,74,0.00,,BKN12015CU,0.00,33.00,VWS V14.00,2013-05-18 21:15:00,
2013-05-18 17:20:00,81.0,71.9,29.99,SSE,166,5.0,12.0,74,0.00,,BKN12015CU,0.00,32.00,VWS V14.00,2013-05-18 21:20:00,
2013-05-18 17:25:00,80.8,71.7,29.99,South,169,7.0,14.0,74,0.00,,BKN12015CU,0.00,28.00,VWS V14.00,2013-05-18 21:25:00,
2013-05-18 17:30:00,80.6,71.9,29.99,South,182,9.0,11.0,75,0.00,,BKN12015CU,0.00,26.00,VWS V14.00,2013-05-18 21:30:00,
2013-05-18 17:35:00,80.4,71.8,29.99,SSE,165,11.0,11.0,75,0.00,,BKN023CU,0.00,25.00,VWS V14.00,2013-05-18 21:35:00,
2013-05-18 17:40:00,80.2,71.6,29.99,South,182,3.0,13.0,75,0.00,,BKN023CU,0.00,23.00,VWS V14.00,2013-05-18 21:40:00,
2013-05-18 17:45:00,80.2,71.9,29.99,SSE,156,5.0,8.0,76,0.00,,BKN023CU,0.00,25.00,VWS V14.00,2013-05-18 21:45:00,
2013-05-18 17:50:00,80.1,71.9,30.00,South,170,10.0,11.0,76,0.00,,BKN023CU,0.00,28.00,VWS V14.00,2013-05-18 21:50:00,
2013-05-18 17:55:00,80.0,71.8,29.99,SSE,155,3.0,10.0,76,0.00,,BKN023CU,0.00,32.00,VWS V14.00,2013-05-18 21:55:00,
2013-05-18 18:00:00,80.0,71.8,30.00,SSE,150,3.0,6.0,76,0.00,,BKN023CU,0.00,35.00,VWS V14.00,2013-05-18 22:00:00,
2013-05-18 18:05:00,80.1,71.9,30.00,SSE,161,9.0,12.0,76,0.00,,BKN023CU,0.00,42.00,VWS V14.00,2013-05-18 22:05:00,
2013-05-18 18:10:00,80.0,71.4,30.00,SSE,161,6.0,8.0,75,0.00,,BKN023CU,0.00,90.00,VWS V14.00,2013-05-18 22:10:00,
2013-05-18 18:15:00,80.2,71.6,30.00,SSE,155,3.0,12.0,75,0.00,,BKN023CU,0.00,98.00,VWS V14.00,2013-05-18 22:15:00,
2013-05-18 18:20:00,80.4,71.4,29.99,SSE,156,5.0,10.0,74,0.00,,BKN023CU,0.00,128.00,VWS V14.00,2013-05-18 22:20:00,
2013-05-18 18:25:00,80.7,71.7,29.99,South,170,3.0,10.0,74,0.00,,BKN023CU,0.00,125.00,VWS V14.00,2013-05-18 22:25:00,
2013-05-18 18:30:00,80.5,71.5,29.99,SE,128,4.0,13.0,74,0.00,,BKN023CU,0.00,60.00,VWS V14.00,2013-05-18 22:30:00,
2013-05-18 18:35:00,80.3,71.3,29.99,SE,138,9.0,10.0,74,0.00,,BKN023CU,0.00,63.00,VWS V14.00,2013-05-18 22:35:00,
2013-05-18 18:40:00,80.3,71.7,30.00,SSE,164,3.0,8.0,75,0.00,,SCT022CU,0.00,56.00,VWS V14.00,2013-05-18 22:40:00,
2013-05-18 18:45:00,80.3,71.3,29.99,SSE,159,3.0,10.0,74,0.00,,SCT022CU,0.00,76.00,VWS V14.00,2013-05-18 22:45:00,
2013-05-18 18:50:00,80.2,71.6,29.99,South,171,8.0,9.0,75,0.00,,SCT022CU,0.00,21.00,VWS V14.00,2013-05-18 22:50:00,
2013-05-18 18:55:00,80.1,71.5,29.99,SSE,162,10.0,11.0,75,0.00,,SCT022CU,0.00,12.00,VWS V14.00,2013-05-18 22:55:00,
2013-05-18 19:00:00,79.9,71.3,29.99,SSE,147,8.0,9.0,75,0.00,,SCT022CU,0.00,18.00,VWS V14.00,2013-05-18 23:00:00,
2013-05-18 19:05:00,79.8,71.2,29.99,South,174,9.0,12.0,75,0.00,,SCT022CU,0.00,35.00,VWS V14.00,2013-05-18 23:05:00,
2013-05-18 19:10:00,79.6,71.0,30.00,South,177,2.0,10.0,75,0.00,,SCT022CU,0.00,35.00,VWS V14.00,2013-05-18 23:10:00,
2013-05-18 19:15:00,79.6,71.0,30.00,SSE,165,1.0,6.0,75,0.00,,SCT022CU,0.00,37.00,VWS V14.00,2013-05-18 23:15:00,
2013-05-18 19:20:00,79.6,71.0,30.01,SSE,166,6.0,7.0,75,0.00,,SCT022CU,0.00,49.00,VWS V14.00,2013-05-18 23:20:00,
2013-05-18 19:25:00,79.6,71.0,30.01,SSE,155,3.0,5.0,75,0.00,,SCT022CU,0.00,30.00,VWS V14.00,2013-05-18 23:25:00,
2013-05-18 19:30:00,79.5,70.9,30.01,SSE,165,8.0,15.0,75,0.00,,SCT022CU,0.00,19.00,VWS V14.00,2013-05-18 23:30:00,
2013-05-18 19:35:00,79.3,70.7,30.00,South,183,10.0,13.0,75,0.00,,SCT022CU,0.00,18.00,VWS V14.00,2013-05-18 23:35:00,
2013-05-18 19:40:00,79.3,71.1,30.00,South,173,7.0,13.0,76,0.00,,BKN022CU,0.00,14.00,VWS V14.00,2013-05-18 23:40:00,
2013-05-18 19:45:00,79.2,71.0,30.00,SSE,165,6.0,7.0,76,0.00,,BKN022CU,0.00,12.00,VWS V14.00,2013-05-18 23:45:00,
2013-05-18 19:50:00,79.1,70.9,30.01,South,178,4.0,4.0,76,0.00,,BKN022CU,0.00,9.00,VWS V14.00,2013-05-18 23:50:00,
2013-05-18 19:55:00,79.1,70.9,30.01,South,182,0.0,7.0,76,0.00,,BKN022CU,0.00,5.00,VWS V14.00,2013-05-18 23:55:00,
2013-05-18 20:00:00,79.0,70.8,30.01,SSE,158,5.0,10.0,76,0.00,,BKN022CU,0.00,0.00,VWS V14.00,2013-05-19 00:00:00,
2013-05-18 20:05:00,78.9,70.7,30.01,South,169,9.0,11.0,76,0.00,,BKN022CU,0.00,0.00,VWS V14.00,2013-05-19 00:05:00,
2013-05-18 20:10:00,78.7,70.9,30.01,SSE,167,9.0,9.0,77,0.00,,BKN022CU,0.00,0.00,VWS V14.00,2013-05-19 00:10:00,
2013-05-18 20:15:00,78.8,71.0,30.01,SSE,164,4.0,5.0,77,0.00,,SCT024CU,0.00,0.00,VWS V14.00,2013-05-19 00:15:00,
2013-05-18 20:20:00,78.7,70.9,30.02,South,174,4.0,6.0,77,0.00,,SCT024CU,0.00,0.00,VWS V14.00,2013-05-19 00:20:00,
2013-05-18 20:25:00,78.7,70.9,30.02,South,174,5.0,7.0,77,0.00,,SCT024CU,0.00,0.00,VWS V14.00,2013-05-19 00:25:00,
2013-05-18 20:30:00,78.7,70.9,30.02,South,175,0.0,0.0,77,0.00,,SCT024CU,0.00,0.00,VWS V14.00,2013-05-19 00:30:00,
2013-05-18 20:35:00,78.6,70.8,30.02,SSE,158,10.0,10.0,77,0.00,,SCT024CU,0.00,0.00,VWS V14.00,2013-05-19 00:35:00,
2013-05-18 20:40:00,78.6,70.8,30.02,South,173,4.0,7.0,77,0.00,,SCT024CU,0.00,0.00,VWS V14.00,2013-05-19 00:40:00,
2013-05-18 20:45:00,78.5,70.7,30.03,SSE,161,4.0,6.0,77,0.00,,SCT024CU,0.00,0.00,VWS V14.00,2013-05-19 00:45:00,
2013-05-18 20:50:00,78.5,70.7,30.02,SSE,165,4.0,5.0,77,0.00,,SCT024CU,0.00,0.00,VWS V14.00,2013-05-19 00:50:00,
2013-05-18 20:55:00,78.5,70.3,30.02,South,174,1.0,5.0,76,0.00,,SCT024CU,0.00,0.00,VWS V14.00,2013-05-19 00:55:00,
2013-05-18 21:00:00,78.4,70.2,30.03,SSW,192,10.0,10.0,76,0.00,,SCT024CU,0.00,0.00,VWS V14.00,2013-05-19 01:00:00,
2013-05-18 21:05:00,78.4,70.6,30.02,South,184,5.0,5.0,77,0.00,,SCT024CU,0.00,0.00,VWS V14.00,2013-05-19 01:05:00,
2013-05-18 21:10:00,78.3,70.5,30.02,South,186,5.0,6.0,77,0.00,,SCT024CU,0.00,0.00,VWS V14.00,2013-05-19 01:10:00,
2013-05-18 21:15:00,78.2,70.4,30.03,South,186,6.0,12.0,77,0.00,,SCT024CU,0.00,0.00,VWS V14.00,2013-05-19 01:15:00,
2013-05-18 21:20:00,78.2,70.4,30.03,South,178,0.0,5.0,77,0.00,,SCT024CU,0.00,0.00,VWS V14.00,2013-05-19 01:20:00,
2013-05-18 21:25:00,78.2,70.4,30.02,South,180,5.0,5.0,77,0.00,,SCT024CU,0.00,0.00,VWS V14.00,2013-05-19 01:25:00,
2013-05-18 21:30:00,78.1,70.3,30.03,South,182,9.0,9.0,77,0.00,,SCT024CU,0.00,0.00,VWS V14.00,2013-05-19 01:30:00,
2013-05-18 21:35:00,78.0,70.6,30.03,South,184,0.0,4.0,78,0.00,,SCT024CU,0.00,0.00,VWS V14.00,2013-05-19 01:35:00,
2013-05-18 21:40:00,78.0,70.6,30.02,South,184,0.0,4.0,78,0.00,,BKN033CU,0.00,0.00,VWS V14.00,2013-05-19 01:40:00,
2013-05-18 21:45:00,78.0,70.6,30.03,South,171,3.0,7.0,78,0.00,,BKN033CU,0.00,0.00,VWS V14.00,2013-05-19 01:45:00,
2013-05-18 21:50:00,77.9,70.5,30.03,South,171,0.0,0.0,78,0.00,,BKN033CU,0.00,0.00,VWS V14.00,2013-05-19 01:50:00,
2013-05-18 21:55:00,78.0,70.6,30.03,South,180,5.0,6.0,78,0.00,,BKN033CU,0.00,0.00,VWS V14.00,2013-05-19 01:55:00,
2013-05-18 22:00:00,78.0,70.6,30.03,South,180,0.0,4.0,78,0.00,,BKN033CU,0.00,0.00,VWS V14.00,2013-05-19 02:00:00,
2013-05-18 22:05:00,77.9,70.9,30.03,South,180,3.0,4.0,79,0.00,,BKN033CU,0.00,0.00,VWS V14.00,2013-05-19 02:05:00,
2013-05-18 22:10:00,77.9,70.9,30.03,South,180,0.0,0.0,79,0.00,,BKN033CU,0.00,0.00,VWS V14.00,2013-05-19 02:10:00,
2013-05-18 22:15:00,77.8,70.8,30.03,South,181,3.0,5.0,79,0.00,,BKN033CU,0.00,0.00,VWS V14.00,2013-05-19 02:15:00,
2013-05-18 22:20:00,77.8,70.8,30.03,South,174,7.0,7.0,79,0.00,,BKN033CU,0.00,0.00,VWS V14.00,2013-05-19 02:20:00,
2013-05-18 22:25:00,77.8,70.8,30.03,South,177,10.0,10.0,79,0.00,,BKN033CU,0.00,0.00,VWS V14.00,2013-05-19 02:25:00,
2013-05-18 22:30:00,77.7,70.7,30.03,South,179,3.0,4.0,79,0.00,,BKN033CU,0.00,0.00,VWS V14.00,2013-05-19 02:30:00,
2013-05-18 22:35:00,77.6,70.6,30.03,South,179,0.0,0.0,79,0.00,,BKN033CU,0.00,0.00,VWS V14.00,2013-05-19 02:35:00,
2013-05-18 22:40:00,77.6,70.9,30.03,South,179,0.0,4.0,80,0.00,,SCT033CU,0.00,0.00,VWS V14.00,2013-05-19 02:40:00,
2013-05-18 22:45:00,77.5,70.8,30.04,South,179,4.0,5.0,80,0.00,,SCT033CU,0.00,0.00,VWS V14.00,2013-05-19 02:45:00,
2013-05-18 22:50:00,77.4,70.8,30.04,South,179,3.0,5.0,80,0.00,,SCT033CU,0.00,0.00,VWS V14.00,2013-05-19 02:50:00,
2013-05-18 22:55:00,77.4,70.8,30.04,South,179,0.0,3.0,80,0.00,,SCT033CU,0.00,0.00,VWS V14.00,2013-05-19 02:55:00,
2013-05-18 23:00:00,77.3,70.7,30.04,South,179,3.0,4.0,80,0.00,,SCT033CU,0.00,0.00,VWS V14.00,2013-05-19 03:00:00,
2013-05-18 23:05:00,77.3,70.7,30.04,South,179,3.0,3.0,80,0.00,,SCT033CU,0.00,0.00,VWS V14.00,2013-05-19 03:05:00,
2013-05-18 23:10:00,77.3,70.7,30.04,South,179,0.0,6.0,80,0.00,,SCT033CU,0.00,0.00,VWS V14.00,2013-05-19 03:10:00,
2013-05-18 23:15:00,77.2,70.6,30.04,South,179,0.0,5.0,80,0.00,,SCT033CU,0.00,0.00,VWS V14.00,2013-05-19 03:15:00,
2013-05-18 23:20:00,77.2,70.6,30.04,South,179,0.0,0.0,80,0.00,,SCT033CU,0.00,0.00,VWS V14.00,2013-05-19 03:20:00,
2013-05-18 23:25:00,77.1,70.5,30.04,South,179,0.0,0.0,80,0.00,,SCT033CU,0.00,0.00,VWS V14.00,2013-05-19 03:25:00,
2013-05-18 23:30:00,77.0,70.4,30.04,South,179,0.0,0.0,80,0.00,,SCT033CU,0.00,0.00,VWS V14.00,2013-05-19 03:30:00,
2013-05-18 23:35:00,77.0,70.4,30.04,South,179,0.0,1.0,80,0.00,,SCT033CU,0.00,0.00,VWS V14.00,2013-05-19 03:35:00,
2013-05-18 23:40:00,76.9,70.3,30.04,South,179,0.0,0.0,80,0.00,,FEW033,0.00,0.00,VWS V14.00,2013-05-19 03:40:00,
2013-05-18 23:45:00,76.9,70.3,30.04,South,179,0.0,0.0,80,0.00,,FEW033,0.00,0.00,VWS V14.00,2013-05-19 03:45:00,
2013-05-18 23:50:00,76.9,70.3,30.04,South,179,0.0,2.0,80,0.00,,FEW033,0.00,0.00,VWS V14.00,2013-05-19 03:50:00,
2013-05-18 23:55:00,76.8,70.2,30.04,South,179,0.0,0.0,80,0.00,,FEW033,0.00,0.00,VWS V14.00,2013-05-19 03:55:00,